Weather History for Crane Lake, MN

Change the Weather History Date:

Wednesday, November 21, 2012

  Actual Average Record
Temperature  
Mean Temperature 38 °F -  
Max Temperature 51 °F 30 °F 53 °F (2006)
Min Temperature 26 °F 17 °F -4 °F (1996)
Degree Days  
Heating Degree Days 26    
Moisture  
Dew Point 30 °F    
Average Humidity 77    
Maximum Humidity 93    
Minimum Humidity 50    
Precipitation  
Precipitation 0.00 in - - ()
Sea Level Pressure  
Sea Level Pressure 29.83 in    
Wind  
Wind Speed 3 mph (South)    
Max Wind Speed 8 mph    
Max Gust Speed -    
Visibility 10 miles    
Events      
Averages and records for this station are not official NWS values.
T = Trace of Precipitation, MM = Missing Value Source: NWS Daily Summary

Daily Weather History Graph

Daily Weather History Graph

Search for Another Location

Airport:

Trip Planner

Search our weather history database for the weather conditions in past years. The results will help you decide how hot, cold, wet, or windy it might be!

Date:

Astronomy

Nov. 21, 2012 Rise Set
Actual Time 7:26 AM CST 4:24 PM CST
Civil Twilight 6:52 AM CST 4:59 PM CST
Nautical Twilight 6:13 AM CST 5:37 PM CST
Astronomical Twilight 5:36 AM CST 6:15 PM CST
Moon 1:07 PM CST (11/21) 12:17 AM CST (11/21)
Length of Visible Light 10h 07m
Length of Day
8h 57m
First Quarter, 62% of the Moon is Illuminated
Nov 21
First Quarter
Nov 28
Full
Dec 6
Last Quarter
Dec 13
New
Dec 19
First Quarter

Hourly Weather History & Observations

Time (CST) Temp. Windchill Dew Point Humidity Pressure Visibility Wind Dir Wind Speed Gust Speed Precip Events Conditions
12:06 AM 35.6 °F 29.2 °F 26.6 °F 70% 29.94 in 10.0 mi South 8.1 mph - N/A   Clear
12:26 AM 35.6 °F 32.8 °F 26.6 °F 70% 29.95 in 10.0 mi South 3.5 mph - N/A   Clear
12:46 AM 33.8 °F 30.8 °F 26.6 °F 75% 29.95 in 10.0 mi South 3.5 mph - N/A   Clear
1:06 AM 32.0 °F 27.5 °F 24.8 °F 75% 29.94 in 10.0 mi South 4.6 mph - N/A   Clear
1:26 AM 32.0 °F 27.5 °F 26.6 °F 80% 29.94 in 10.0 mi South 4.6 mph - N/A   Clear
1:46 AM 32.0 °F 27.5 °F 26.6 °F 80% 29.93 in 10.0 mi South 4.6 mph - N/A   Clear
2:06 AM 32.0 °F 27.5 °F 26.6 °F 80% 29.93 in 10.0 mi South 4.6 mph - N/A   Clear
2:26 AM 33.8 °F 29.6 °F 26.6 °F 75% 29.93 in 10.0 mi South 4.6 mph - N/A   Clear
2:46 AM 32.0 °F 28.7 °F 26.6 °F 80% 29.92 in 10.0 mi SSE 3.5 mph - N/A   Clear
3:06 AM 30.2 °F 25.4 °F 26.6 °F 86% 29.91 in 10.0 mi South 4.6 mph - N/A   Clear
3:26 AM 32.0 °F 25.6 °F 28.4 °F 87% 29.90 in 10.0 mi South 6.9 mph - N/A   Clear
3:46 AM 33.8 °F 29.6 °F 28.4 °F 81% 29.90 in 10.0 mi SSE 4.6 mph - N/A   Clear
4:06 AM 33.8 °F 29.6 °F 28.4 °F 81% 29.89 in 10.0 mi SSE 4.6 mph - N/A   Clear
4:26 AM 33.8 °F 30.8 °F 28.4 °F 81% 29.89 in 10.0 mi SSE 3.5 mph - N/A   Clear
4:46 AM 33.8 °F 29.6 °F 28.4 °F 81% 29.89 in 10.0 mi South 4.6 mph - N/A   Clear
5:06 AM 33.8 °F 30.8 °F 28.4 °F 81% 29.89 in 10.0 mi South 3.5 mph - N/A   Clear
5:26 AM 30.2 °F - 26.6 °F 86% 29.90 in 10.0 mi Calm Calm - N/A   Clear
5:46 AM 28.4 °F - 24.8 °F 86% 29.91 in 10.0 mi Calm Calm - N/A   Clear
6:06 AM 28.4 °F - 24.8 °F 86% 29.91 in 10.0 mi Calm Calm - N/A   Clear
6:26 AM 26.6 °F - 24.8 °F 93% 29.91 in 10.0 mi Calm Calm - N/A   Clear
6:46 AM 26.6 °F - 23.0 °F 86% 29.91 in 10.0 mi Calm Calm - N/A   Clear
7:06 AM 26.6 °F - 23.0 °F 86% 29.91 in 10.0 mi Calm Calm - N/A   Clear
7:26 AM 26.6 °F - 23.0 °F 86% 29.91 in 10.0 mi Calm Calm - N/A   Clear
7:46 AM 26.6 °F - 23.0 °F 86% 29.90 in 10.0 mi Calm Calm - N/A   Clear
8:06 AM 26.6 °F - 24.8 °F 93% 29.91 in 10.0 mi Calm Calm - N/A   Clear
8:26 AM 28.4 °F - 26.6 °F 93% 29.91 in 10.0 mi Calm Calm - N/A   Clear
8:46 AM 30.2 °F - 26.6 °F 86% 29.91 in 10.0 mi Calm Calm - N/A   Clear
9:06 AM 32.0 °F - 30.2 °F 93% 29.91 in 10.0 mi Calm Calm - N/A   Clear
9:26 AM 33.8 °F - 30.2 °F 87% 29.90 in 10.0 mi Calm Calm - N/A   Clear
9:46 AM 35.6 °F 32.8 °F 32.0 °F 87% 29.90 in 10.0 mi SSE 3.5 mph - N/A   Clear
10:06 AM 35.6 °F 31.7 °F 33.8 °F 93% 29.90 in 10.0 mi South 4.6 mph - N/A   Clear
10:46 AM 39.2 °F - 33.8 °F 81% 29.90 in 10.0 mi Calm Calm - N/A   Clear
11:06 AM 39.2 °F 35.9 °F 33.8 °F 81% 29.87 in 10.0 mi SSE 4.6 mph - N/A   Clear
11:26 AM 41.0 °F - 33.8 °F 76% 29.88 in 10.0 mi Calm Calm - N/A   Clear
11:46 AM 42.8 °F - 35.6 °F 76% 29.87 in 10.0 mi Calm Calm - N/A   Clear
12:06 PM 46.4 °F 45.2 °F 33.8 °F 62% 29.87 in 10.0 mi South 3.5 mph - N/A   Clear
12:26 PM 48.2 °F - 35.6 °F 62% 29.86 in 10.0 mi Calm Calm - N/A   Clear
12:46 PM 48.2 °F - 35.6 °F 62% 29.85 in 10.0 mi Calm Calm - N/A   Clear
1:06 PM 50.0 °F - 33.8 °F 54% 29.85 in 10.0 mi Calm Calm - N/A   Clear
1:26 PM 50.0 °F - 35.6 °F 58% 29.85 in 10.0 mi Calm Calm - N/A   Clear
1:46 PM 51.8 °F - 33.8 °F 50% 29.85 in 10.0 mi Calm Calm - N/A   Clear
2:11 PM 51.8 °F - 33.8 °F 50% 29.84 in 10.0 mi South 3.5 mph - N/A   Clear
2:26 PM 51.8 °F - 33.8 °F 50% 29.83 in 10.0 mi Calm Calm - N/A   Clear
2:46 PM 48.2 °F - 33.8 °F 58% 29.82 in 10.0 mi Calm Calm - N/A   Clear
3:06 PM 48.2 °F - 33.8 °F 58% 29.82 in 10.0 mi Calm Calm - N/A   Clear
3:26 PM 46.4 °F - 33.8 °F 62% 29.82 in 10.0 mi Calm Calm - N/A   Clear
3:51 PM 44.6 °F - 32.0 °F 61% 29.81 in 10.0 mi Calm Calm - N/A   Clear
4:06 PM 42.8 °F - 30.2 °F 61% 29.81 in 10.0 mi Calm Calm - N/A   Clear
4:26 PM 41.0 °F - 30.2 °F 65% 29.81 in 10.0 mi Calm Calm - N/A   Clear
4:46 PM 39.2 °F - 30.2 °F 70% 29.80 in 10.0 mi Calm Calm - N/A   Clear
5:06 PM 39.2 °F - 30.2 °F 70% 29.80 in 10.0 mi Calm Calm - N/A   Clear
5:26 PM 37.4 °F - 30.2 °F 75% 29.79 in 10.0 mi Calm Calm - N/A   Clear
5:46 PM 37.4 °F - 30.2 °F 75% 29.78 in 10.0 mi Calm Calm - N/A   Clear
6:06 PM 37.4 °F - 30.2 °F 75% 29.77 in 10.0 mi Calm Calm - N/A   Clear
6:26 PM 37.4 °F - 30.2 °F 75% 29.76 in 10.0 mi Calm Calm - N/A   Clear
6:46 PM 37.4 °F - 33.8 °F 87% 29.76 in 10.0 mi Calm Calm - N/A   Clear
7:06 PM 37.4 °F - 33.8 °F 87% 29.75 in 10.0 mi Calm Calm - N/A   Clear
7:26 PM 39.2 °F - 33.8 °F 81% 29.74 in 10.0 mi Calm Calm - N/A   Clear
7:46 PM 37.4 °F - 33.8 °F 87% 29.73 in 10.0 mi Calm Calm - N/A   Clear
8:06 PM 39.2 °F 37.0 °F 33.8 °F 81% 29.72 in 10.0 mi SSE 3.5 mph - N/A   Clear
8:26 PM 37.4 °F 34.9 °F 33.8 °F 87% 29.71 in 10.0 mi SSE 3.5 mph - N/A   Clear
8:46 PM 39.2 °F 37.0 °F 33.8 °F 81% 29.71 in 10.0 mi South 3.5 mph - N/A   Clear
9:06 PM 39.2 °F 37.0 °F 33.8 °F 81% 29.69 in 10.0 mi SSE 3.5 mph - N/A   Clear
9:26 PM 37.4 °F - 33.8 °F 87% 29.68 in 10.0 mi Calm Calm - N/A   Clear
9:46 PM 35.6 °F - 30.2 °F 81% 29.68 in 10.0 mi Calm Calm - N/A   Clear
10:06 PM 33.8 °F - 28.4 °F 81% 29.66 in 10.0 mi Calm Calm - N/A   Clear
10:26 PM 32.0 °F - 26.6 °F 80% 29.64 in 10.0 mi Calm Calm - N/A   Clear
10:46 PM 30.2 °F - 26.6 °F 86% 29.63 in 10.0 mi Calm Calm - N/A   Clear
11:06 PM 30.2 °F - 26.6 °F 86% 29.61 in 10.0 mi Calm Calm - N/A   Clear
11:26 PM 30.2 °F - 26.6 °F 86% 29.61 in 10.0 mi Calm Calm - N/A   Clear
11:46 PM 30.2 °F - 26.6 °F 86% 29.60 in 10.0 mi Calm Calm - N/A   Clear